IRIDIUM 108

Last updated on Fri Sep 11 2026 00:03:06 GMT+0000 (Coordinated Universal Time)

1 41924U 17003H 26253.43164738 .00000050 00000+0 10845-4 0 9991 2 41924 86.3996 21.1031 0002120 95.1914 264.9524 14.34217162507325
UTC large
Height (km)
Speed (km/s)
/
Latitude / Longitude
Inclination (degrees)
Orbital Period (minutes)
Azimuth
Elevation
Range (km)
Doppler Factor

Next 0 passes for location: London (51.5072 / 0.1276)

No passes found over London.
IRIDIUM 108